TimePST,TemperatureF,Dew PointF,Humidity,Sea Level PressureIn,VisibilityMPH,Wind Direction,Wind SpeedMPH,Gust SpeedMPH,PrecipitationIn,Events,Conditions,WindDirDegrees,DateUTC
12:53 AM,18.0,12.9,81,30.51,8.0,Calm,Calm,-,N/A,,Clear,0,2013-01-03 08:53:00
1:53 AM,19.0,14.0,81,30.50,7.0,Calm,Calm,-,N/A,,Clear,0,2013-01-03 09:53:00
2:53 AM,17.1,12.9,84,30.50,8.0,Calm,Calm,-,N/A,,Clear,0,2013-01-03 10:53:00
3:53 AM,16.0,12.9,88,30.50,5.0,Calm,Calm,-,N/A,,Scattered Clouds,0,2013-01-03 11:53:00
4:01 AM,15.8,12.2,86,30.41,6.0,Calm,Calm,-,N/A,,Mostly Cloudy,0,2013-01-03 12:01:00
4:21 AM,15.8,10.4,79,30.41,8.0,Calm,Calm,-,N/A,,Partly Cloudy,0,2013-01-03 12:21:00
4:53 AM,15.1,10.9,84,30.49,10.0,Calm,Calm,-,N/A,,Clear,0,2013-01-03 12:53:00
5:53 AM,14.0,10.0,84,30.49,10.0,Calm,Calm,-,N/A,,Clear,0,2013-01-03 13:53:00
6:53 AM,15.1,10.0,80,30.48,9.0,Calm,Calm,-,N/A,,Clear,0,2013-01-03 14:53:00
7:53 AM,14.0,9.0,80,30.48,7.0,Calm,Calm,-,N/A,,Clear,0,2013-01-03 15:53:00
8:53 AM,15.1,10.9,84,30.50,7.0,Calm,Calm,-,N/A,,Clear,0,2013-01-03 16:53:00
9:53 AM,19.0,15.1,85,30.49,7.0,Calm,Calm,-,N/A,,Clear,0,2013-01-03 17:53:00
10:53 AM,23.0,17.1,78,30.46,10.0,Calm,Calm,-,N/A,,Clear,0,2013-01-03 18:53:00
11:53 AM,25.0,18.0,75,30.44,9.0,Calm,Calm,-,N/A,,Clear,0,2013-01-03 19:53:00
12:53 PM,28.0,18.0,66,30.41,10.0,ENE,4.6,-,N/A,,Clear,60,2013-01-03 20:53:00
1:53 PM,28.9,18.0,64,30.39,10.0,NE,3.5,-,N/A,,Clear,40,2013-01-03 21:53:00
2:53 PM,28.0,18.0,66,30.38,10.0,Calm,Calm,-,N/A,,Clear,0,2013-01-03 22:53:00
3:53 PM,28.0,18.0,66,30.38,10.0,Calm,Calm,-,N/A,,Clear,0,2013-01-03 23:53:00
4:53 PM,25.0,17.1,72,30.39,10.0,Calm,Calm,-,N/A,,Clear,0,2013-01-04 00:53:00
5:53 PM,21.9,16.0,78,30.40,10.0,Calm,Calm,-,N/A,,Clear,0,2013-01-04 01:53:00
6:53 PM,23.0,17.1,78,30.41,10.0,Calm,Calm,-,N/A,,Clear,0,2013-01-04 02:53:00
7:53 PM,21.0,17.1,85,30.41,10.0,Calm,Calm,-,N/A,,Clear,0,2013-01-04 03:53:00
8:53 PM,19.9,16.0,85,30.41,10.0,Calm,Calm,-,N/A,,Clear,0,2013-01-04 04:53:00
9:53 PM,19.0,15.1,85,30.42,9.0,Calm,Calm,-,N/A,,Clear,0,2013-01-04 05:53:00
10:53 PM,18.0,12.9,81,30.43,6.0,Calm,Calm,-,N/A,,Haze,0,2013-01-04 06:53:00
11:53 PM,19.9,16.0,85,30.43,8.0,Calm,Calm,-,N/A,,Overcast,0,2013-01-04 07:53:00